Current weather by "City, St" or "zip code"  
 

Current Conditions: Pecos, Pecos Municipal Airport, TX

Mostly Cloudy


97.0 F

Last Updated on Jul 3 2022, 3:15 pm CDT
Humidity: 24%
Wind Speed: E 11.5 G 19.6 mph
Barometer 29.94 in
Dewpoint: 54.7 F
Visibility: 10.00 mi
Precip: --
Heat Index: 95 F
Wind Chill: NA
Current conditions at:

Pecos, Pecos Municipal Airport, TX (KPEQ)

Lat: 31.38222 Lon: 103.51056

Local Radar Image active severe weather and emergency alerts image image weather storm and storm spotter reports image weather observation monitoring service image
Local
Radar
Active
Alerts
Storm Reports Obs
Monitoring

Sign-up For Email & Text Message Weather Alert Notification Services



Advertise Here

Observation History for Pecos, Pecos Municipal Airport, TX


Time Wind
(mph)
Vis
(mi)
Weather Precip (in) Temperature (F) Relative
Humidity
Wind
Chill
(F)
Heat
Index
(F)
Pressure
Air Dwpt altimeter
(in)
sea level
(mb)
Rmks
3:15 pm CDT E 11.5 G 19.6 10.00 Mostly Cloudy -- 97.0 54.7 24% NA 95 29.94 M
2:55 pm CDT SE 21.9 G 25.3 10.00 Mostly Cloudy and Breezy -- 97.0 55.8 25% NA 96 29.95 M
1:55 pm CDT E 9.2 G 19.6 10.00 Partly Cloudy -- 96.0 57.6 28% NA 95 29.96 M
1:35 pm CDT E 11.5 10.00 Partly Cloudy -- 95.0 57.9 29% NA 94 29.97 M
1:15 pm CDT SE 8.1 G 17.3 10.00 Fair -- 95.0 56.7 27% NA 93 29.98 M
12:55 pm CDT E 10.4 G 18.4 10.00 Fair -- 94.0 57.2 29% NA 93 29.98 M
12:35 pm CDT SE 12.7 G 17.3 10.00 Fair -- 94.0 57.2 30% NA 93 29.99 M
12:15 pm CDT SE 9.2 10.00 Fair -- 93.0 57.2 30% NA 92 30.00 M
11:55 am CDT SE 12.7 10.00 Fair -- 91.0 57.6 32% NA 90 30.00 M
11:35 am CDT SE 8.1 G 16.1 10.00 Fair -- 90.0 57.7 34% NA 89 30.01 M
11:15 am CDT E 9.2 10.00 Fair -- 89.0 56.3 33% NA 87 30.00 M
10:55 am CDT SE 9.2 10.00 Fair -- 88.0 56.3 35% NA 87 30.00 M
10:35 am CDT SE 6.9 10.00 Fair -- 85.0 56.7 38% NA 84 30.00 M
10:15 am CDT SE 8.1 10.00 Fair -- 83.0 57.0 41% NA 82 30.00 M
9:55 am CDT SE 6.9 10.00 Fair -- 82.0 57.2 43% NA 82 30.00 M
9:35 am CDT SE 8.1 10.00 Fair -- 81.0 57.4 44% NA 81 30.00 M
9:15 am CDT SE 8.1 10.00 Fair -- 79.0 59.9 52% NA NA 29.99 M
8:55 am CDT SE 9.2 10.00 Fair -- 78.0 59.7 53% NA NA 30.00 M
8:35 am CDT SE 6.9 10.00 Fair -- 76.0 61.2 60% NA NA 30.00 M
8:15 am CDT E 5.8 10.00 Fair -- 75.0 61.0 61% NA NA 29.99 M
7:55 am CDT N 0.0 10.00 Fair -- 74.0 60.1 62% NA NA 29.99 M
7:35 am CDT N 0.0 10.00 Fair -- 73.0 59.5 64% NA NA 29.99 M
7:15 am CDT E 3.5 10.00 Fair -- 72.0 59.0 65% NA NA 29.99 M
6:55 am CDT E 3.5 10.00 Fair -- 72.0 59.0 65% NA NA 29.98 M

Regional Weather Observation


Wink, Winkler County Airport, TX (KINK)

Fair
96.0 F

Pine Springs, Guadalupe Mountains National Park, TX (KGDP)

A Few Clouds
84.0 F

Culberson County Airport, TX (KVHN)

Mostly Cloudy
91.0 F

Carlsbad, Cavern City Air Terminal Airport, NM (KCNM)

A Few Clouds
95.0 F

Hobbs / Lea County, NM (KHOB)

Partly Cloudy
91.0 F

Odessa, Odessa-Schlemeyer Field, TX (KODO)

A Few Clouds
93.0 F

Advertise Here


Advertise Here